Hourly Weather Alkuzhi

Today, 27 November, Friday

Time Temperature Precipitation Wind Pressure Humidity
00:00 -3°C° 0 mm 4 mps 755 mmHg 83%
01:00 -4°C° 0.3 mm 5 mps 755 mmHg 87%
02:00 -4°C° 0.3 mm 5 mps 754 mmHg 91%
03:00 -4°C° 0 mm 5 mps 754 mmHg 95%
04:00 -4°C° 0.9 mm 5 mps 753 mmHg 95%
05:00 -2°C° 0.9 mm 4 mps 753 mmHg 95%
06:00 -2°C° 0.9 mm 4 mps 752 mmHg 96%
07:00 -2°C° 0.3 mm 4 mps 752 mmHg 96%
08:00 -1°C° 0.3 mm 4 mps 752 mmHg 97%
09:00 0°C° 0.3 mm 3 mps 752 mmHg 97%
10:00 0°C° 0 mm 4 mps 752 mmHg 96%
11:00 0°C° 0 mm 4 mps 752 mmHg 96%
12:00 +1°C° 0 mm 4 mps 752 mmHg 95%
13:00 +1°C° 0 mm 4 mps 752 mmHg 95%
14:00 +1°C° 0 mm 4 mps 752 mmHg 94%
15:00 +2°C° 0 mm 3 mps 752 mmHg 93%
16:00 +1°C° 0 mm 3 mps 752 mmHg 92%
17:00 +1°C° 0 mm 3 mps 752 mmHg 91%
18:00 +1°C° 0 mm 3 mps 752 mmHg 89%
19:00 +1°C° 0 mm 3 mps 752 mmHg 89%
20:00 +1°C° 0 mm 3 mps 752 mmHg 90%
21:00 +1°C° 0 mm 3 mps 753 mmHg 90%
22:00 0°C° 0 mm 3 mps 753 mmHg 92%
23:00 -1°C° 0 mm 4 mps 753 mmHg 94%

Tomorrow, 28 November, Saturday

Time Temperature Precipitation Wind Pressure Humidity
00:00 -1°C° 0 mm 4 mps 754 mmHg 96%
01:00 0°C° 0 mm 4 mps 754 mmHg 96%
02:00 +1°C° 0 mm 3 mps 754 mmHg 97%
03:00 +1°C° 0 mm 3 mps 754 mmHg 97%
04:00 +1°C° 0 mm 3 mps 755 mmHg 97%
05:00 +1°C° 0 mm 3 mps 755 mmHg 97%
06:00 0°C° 0 mm 4 mps 755 mmHg 96%
07:00 0°C° 0.1 mm 4 mps 755 mmHg 96%
08:00 0°C° 0.1 mm 4 mps 756 mmHg 96%
09:00 0°C° 0.1 mm 4 mps 756 mmHg 96%
10:00 0°C° 0.1 mm 4 mps 756 mmHg 95%
11:00 0°C° 0.1 mm 4 mps 757 mmHg 94%
12:00 +1°C° 0.1 mm 4 mps 757 mmHg 93%
13:00 0°C° 0.1 mm 4 mps 757 mmHg 94%
14:00 0°C° 0.1 mm 4 mps 758 mmHg 95%
15:00 +1°C° 0.1 mm 3 mps 758 mmHg 97%
16:00 +1°C° 0 mm 3 mps 758 mmHg 96%
17:00 +1°C° 0 mm 3 mps 759 mmHg 96%
18:00 +1°C° 0 mm 3 mps 759 mmHg 96%
19:00 +1°C° 0 mm 3 mps 759 mmHg 96%
20:00 +1°C° 0 mm 3 mps 760 mmHg 96%
21:00 0°C° 0 mm 4 mps 760 mmHg 96%
22:00 0°C° 0 mm 4 mps 761 mmHg 95%
23:00 0°C° 0 mm 4 mps 761 mmHg 95%

Day after tomorrow, 29 November, Sunday

Time Temperature Precipitation Wind Pressure Humidity
00:00 0°C° 0 mm 4 mps 761 mmHg 95%
01:00 0°C° 0.1 mm 4 mps 762 mmHg 94%
02:00 -1°C° 0.1 mm 4 mps 762 mmHg 93%
03:00 -1°C° 0.1 mm 4 mps 762 mmHg 92%
04:00 -1°C° 0 mm 4 mps 763 mmHg 92%
05:00 -2°C° 0 mm 4 mps 763 mmHg 91%
06:00 -2°C° 0 mm 5 mps 763 mmHg 91%
07:00 -1°C° 0 mm 5 mps 763 mmHg 91%
08:00 -1°C° 0 mm 5 mps 764 mmHg 91%
09:00 0°C° 0 mm 5 mps 764 mmHg 92%
10:00 0°C° 0 mm 5 mps 764 mmHg 91%
11:00 +1°C° 0 mm 5 mps 764 mmHg 91%
12:00 +1°C° 0 mm 5 mps 764 mmHg 90%
13:00 +1°C° 0 mm 5 mps 764 mmHg 90%
14:00 +1°C° 0 mm 6 mps 764 mmHg 89%
15:00 +1°C° 0 mm 6 mps 764 mmHg 89%
16:00 +1°C° 0 mm 6 mps 764 mmHg 89%
17:00 -1°C° 0 mm 6 mps 765 mmHg 89%
18:00 -1°C° 0 mm 7 mps 765 mmHg 89%
19:00 -2°C° 0 mm 6 mps 765 mmHg 87%
20:00 -2°C° 0 mm 6 mps 765 mmHg 85%
21:00 -3°C° 0 mm 6 mps 766 mmHg 83%
22:00 -3°C° 0 mm 6 mps 766 mmHg 81%
23:00 -3°C° 0 mm 6 mps 766 mmHg 80%

30 November, Monday

Time Temperature Precipitation Wind Pressure Humidity
00:00 -3°C° 0 mm 6 mps 766 mmHg 79%
01:00 -3°C° 0 mm 6 mps 766 mmHg 79%
02:00 -4°C° 0 mm 6 mps 766 mmHg 80%
03:00 -4°C° 0 mm 6 mps 766 mmHg 81%
04:00 -4°C° 0 mm 6 mps 766 mmHg 81%
05:00 -4°C° 0 mm 6 mps 766 mmHg 81%
06:00 -4°C° 0 mm 6 mps 766 mmHg 82%
07:00 -4°C° 0 mm 6 mps 766 mmHg 82%
08:00 -4°C° 0 mm 6 mps 766 mmHg 83%
09:00 -4°C° 0 mm 6 mps 767 mmHg 83%
10:00 -4°C° 0 mm 6 mps 767 mmHg 83%
11:00 -3°C° 0 mm 7 mps 767 mmHg 82%
12:00 -3°C° 0 mm 7 mps 767 mmHg 82%
13:00 -3°C° 0 mm 7 mps 767 mmHg 82%
14:00 -3°C° 0 mm 6 mps 767 mmHg 82%
15:00 -3°C° 0 mm 6 mps 767 mmHg 82%
16:00 -3°C° 0 mm 6 mps 767 mmHg 82%
17:00 -3°C° 0 mm 6 mps 767 mmHg 82%
18:00 -3°C° 0 mm 7 mps 767 mmHg 81%
19:00 -3°C° 0 mm 6 mps 767 mmHg 80%
20:00 -4°C° 0 mm 6 mps 767 mmHg 79%
21:00 -4°C° 0 mm 6 mps 767 mmHg 79%
22:00 -4°C° 0 mm 5 mps 767 mmHg 79%
23:00 -4°C° 0 mm 5 mps 767 mmHg 79%

1 December, Tuesday

Time Temperature Precipitation Wind Pressure Humidity
00:00 -5°C° 0 mm 5 mps 767 mmHg 79%
01:00 -5°C° 0 mm 5 mps 767 mmHg 77%
02:00 -5°C° 0 mm 5 mps 767 mmHg 76%
03:00 -5°C° 0 mm 5 mps 767 mmHg 75%
04:00 -5°C° 0 mm 5 mps 767 mmHg 74%
05:00 -5°C° 0 mm 5 mps 767 mmHg 74%
06:00 -6°C° 0 mm 5 mps 767 mmHg 73%
07:00 -6°C° 0 mm 5 mps 767 mmHg 73%
08:00 -6°C° 0 mm 5 mps 767 mmHg 73%
09:00 -6°C° 0 mm 5 mps 767 mmHg 72%
10:00 -6°C° 0 mm 5 mps 767 mmHg 71%
11:00 -5°C° 0 mm 5 mps 767 mmHg 70%
12:00 -5°C° 0 mm 5 mps 767 mmHg 69%
13:00 -4°C° 0 mm 4 mps 766 mmHg 68%
14:00 -4°C° 0 mm 4 mps 766 mmHg 68%
15:00 -4°C° 0 mm 4 mps 766 mmHg 68%
16:00 -5°C° 0 mm 4 mps 766 mmHg 69%
17:00 -5°C° 0 mm 4 mps 766 mmHg 70%
18:00 -6°C° 0 mm 5 mps 766 mmHg 71%
19:00 -5°C° 0 mm 4 mps 766 mmHg 71%
20:00 -7°C° 0 mm 4 mps 766 mmHg 72%
21:00 -7°C° 0 mm 4 mps 766 mmHg 72%
22:00 -7°C° 0 mm 4 mps 766 mmHg 73%
23:00 -7°C° 0 mm 4 mps 766 mmHg 73%

2 December, Wednesday

Time Temperature Precipitation Wind Pressure Humidity
00:00 -7°C° 0 mm 4 mps 766 mmHg 74%
01:00 -8°C° 0 mm 4 mps 766 mmHg 74%
02:00 -8°C° 0 mm 4 mps 766 mmHg 74%
03:00 -8°C° 0 mm 4 mps 766 mmHg 74%
04:00 -8°C° 0 mm 4 mps 766 mmHg 73%
05:00 -8°C° 0 mm 4 mps 766 mmHg 73%
06:00 -9°C° 0 mm 4 mps 766 mmHg 72%
07:00 -9°C° 0 mm 4 mps 766 mmHg 70%
08:00 -9°C° 0 mm 4 mps 766 mmHg 68%
09:00 -9°C° 0 mm 4 mps 766 mmHg 67%
10:00 -9°C° 0 mm 4 mps 766 mmHg 64%
11:00 -8°C° 0 mm 4 mps 766 mmHg 61%
12:00 -8°C° 0 mm 4 mps 766 mmHg 58%
13:00 -8°C° 0 mm 4 mps 766 mmHg 59%
14:00 -8°C° 0 mm 4 mps 766 mmHg 59%
15:00 -8°C° 0 mm 4 mps 766 mmHg 59%
16:00 -9°C° 0 mm 4 mps 766 mmHg 61%
17:00 -9°C° 0 mm 4 mps 766 mmHg 63%
18:00 -10°C° 0 mm 4 mps 766 mmHg 65%
19:00 -10°C° 0 mm 4 mps 766 mmHg 66%
20:00 -10°C° 0 mm 4 mps 767 mmHg 66%
21:00 -9°C° 0 mm 3 mps 767 mmHg 66%
22:00 -9°C° 0 mm 3 mps 767 mmHg 67%
23:00 -10°C° 0 mm 3 mps 767 mmHg 67%
Show more